Вернуться в каталог

STARLINK-34808

АктивенСвязьVLEO
NORAD 65745·PAYLOAD·🇺🇸 United States

Запущен Sep 25, 2025 с Cape Canaveral Space Force Station

Loading…

Ближайшие Пролёты (ближайшие 24 часа)

TLE

СвежийSource: CelesTrak SupGP

Эпоха: Sep 15, 2026, 02:35 UTC

1 65745C 25216M   26258.10812500 -.00040286  00000+0 -11902-2 0  2587
2 65745  53.1574 171.2665 0001279  84.8823 134.8618 15.34411676    14

Отслеживайте STARLINK-34808 в реальном времени с AllMySat

Download on the App Store